Location: Baili�vre
(50.0696°N, 4.2409°E)
Time: 04:53:59
(UTC+00:00)

CZ-2D R/B - Pass Details

Date: 08 August 2020
Orbit: 792 x 845 km, 98.7° (Epoch: 23 September)

Event Time Altitude Azimuth Distance (km) Brightness Sun altitude
Rises 23:46:33 0° 30° (NNE) 3,413 6.3 -24.2°
Reaches altitude 10° 23:50:19 10° 56° (NE) 2,475 5.0 -24.2°
Maximum altitude 23:52:58 14° 85° (E) 2,226 4.4 -24.1°
Enters shadow 23:54:54 12° 107° (ESE) 2,358 4.4 -24.1°
